Vertical_Velocity
-1 -5 -1 -14 5 -1 -32 4 -11 -21 54 9 38 101 60 -30 -11 -6 -0 0 -2 -2 -3 -3 1 -0 -1 3 1 0 -3 -2 -1 1 -2 0 2 -4 -1 -2 -4 10 -2 -2
-3 -2 3 -3 -13 5 -11 6 3 3 5 -4 -9 -1 121 47 -13 -2 -1 1 2 -0 -0 -0 -1 -3 -5 4 2 -2 -2 -2 -1 -2 0 -3 1 1 -4 -5 -3 75 -4 -1
-6 -1 57 -8 3 -22 12 -5 15 4 -3 -8 -5 -21 -19 -17 5 11 6 -0 -3 0 -2 -2 -1 -2 -2 -5 -3 0 -1 -1 1 -1 1 0 1 3 1 -13 -8 -2 1 -1
-0 11 -10 -1 4 14 21 -12 1 -14 -7 -2 1 -5 -11 5 -0 20 15 8 -0 0 -2 -3 -3 -3 -0 1 -2 -1 0 -1 -2 -0 -1 -3 4 2 3 3 0 -3 -2 -2
-2 53 -7 1 -1 -3 2 -16 -9 -10 7 22 -15 -8 -7 22 38 -13 -19 4 -2 -3 -4 1 -1 -3 -2 -1 -3 1 -0 -2 -1 -1 -1 -2 2 -2 -3 1 1 0 -1 -1
-8 12 5 3 -4 1 -3 -15 -0 0 4 -11 3 -6 -1 0 7 -17 -7 -2 -7 -10 -4 -6 -6 -6 -6 -8 -1 3 -1 -1 -2 -0 1 0 0 2 -0 1 1 -0 0 0
-2 -1 -7 -1 20 -18 5 -21 -3 7 60 -1 -1 9 2 7 -4 -9 7 11 -10 -6 -10 -1 3 -12 -9 -8 -5 -1 -1 1 0 -0 -1 -1 4 -1 -1 -0 0 -3 -1 -2
-3 -7 -4 -2 -6 27 -12 33 31 25 -19 -10 8 -6 -22 24 10 9 2 7 5 -6 8 8 -18 18 -10 -6 -10 -11 5 -1 1 0 -1 -2 -1 -0 2 -3 0 0 0 3
6 -12 12 -7 -1 -3 4 -8 18 -13 -6 -1 -9 -7 -16 52 5 -7 8 -7 -1 3 21 94 22 8 -5 -5 -4 -2 -4 -3 1 1 5 -2 6 2 4 0 1 -3 4 5
-6 0 8 -2 -5 4 -10 11 -6 -6 -7 3 8 -6 -6 -30 -3 54 6 5 -1 -4 15 19 15 17 -7 -7 -1 -4 -1 -3 -3 -2 1 1 2 -0 -0 4 2 0 7 -0
-2 -1 7 13 -8 -9 5 -4 -9 4 -30 18 8 36 42 21 -7 -34 -2 -7 -8 -1 -4 -7 -7 -8 -4 -9 -2 5 -6 -5 -3 -0 -2 -1 6 5 -4 3 -1 0 -0 -7
0 -3 1 -8 16 -15 4 4 -11 -1 12 4 6 3 -7 1 27 16 -6 -7 6 4 -3 -3 -4 -3 -1 -5 -4 0 -0 -3 -3 -2 -3 -0 -0 -1 -1 -2 1 1 -3 0
1 -2 -8 14 -7 -5 -18 -17 9 -2 -1 -5 -2 36 -21 -28 205 40 -2 16 8 1 -2 -1 -0 -1 -1 -1 -3 -2 -1 0 -2 -2 -3 -3 -4 -4 -3 -1 -1 -5 -4 -4
-5 -0 -8 33 26 43 -4 -2 -9 -8 31 30 8 0 -16 -10 -19 -36 -2 12 0 5 -2 -3 -3 -2 -3 -1 -0 -1 -1 -1 -1 3 -2 -2 -2 -3 -3 -2 -2 -2 2 -1
-2 -5 2 27 -11 -20 13 10 -1 -8 -5 -7 -7 1 13 -5 -43 -0 6 -2 2 3 -3 -3 -3 -4 -3 -1 -0 -1 -1 -1 -2 2 1 -1 -0 -1 0 -1 1 1 -4 -2
-0 -4 -1 -4 13 -15 25 -5 -13 -23 -13 7 -1 -7 21 -1 4 -30 11 -10 7 5 -2 -1 -3 -3 -3 -2 0 1 0 -0 -1 3 -0 1 -0 -2 0 3 -1 -3 -3 -2
-1 -3 -6 -8 4 2 3 4 -5 16 10 19 20 2 -2 -3 -11 -10 -0 6 5 0 -2 -2 -2 -3 -3 -1 -2 -3 -2 -2 -3 -1 -2 1 -0 1 -1 -2 -1 1 2 2
-8 -3 -7 -7 -1 -15 -5 20 -7 -3 1 2 25 -15 6 9 8 8 8 5 -2 -4 -1 -1 -0 -2 -1 -0 -0 -1 -2 -3 -2 -3 -3 -2 -1 -1 -2 -1 -2 -3 -1 0
19 -8 -5 -13 -6 1 -5 3 -6 -16 -8 -10 -39 14 -14 -0 -2 -1 -3 -4 -1 -2 -2 -1 -0 -2 -2 -2 -1 -1 -1 -1 -1 -2 -3 -2 -2 -1 1 -1 -2 -1 -2 -0
-4 11 -4 2 -3 -6 29 -15 2 21 -7 -15 -1 -10 -16 3 -7 -14 2 -5 -2 -2 -2 -2 -1 -2 -3 -1 -3 -3 0 3 -1 1 -1 -2 -3 -2 -1 -3 -0 -1 -2 1
-4 -2 18 -9 3 31 -25 2 -30 25 -50 55 0 -7 7 -1 0 0 -2 -2 -3 -2 -3 -3 -3 -2 -3 -3 -1 -3 -3 -2 -2 -1 3 1 -2 -1 6 -4 1 -2 1 -4
-2 -16 3 25 -10 23 8 14 2 -17 11 -10 32 -5 2 -8 -1 1 0 -1 -1 -1 -2 -4 -3 -2 -2 -3 -2 1 -3 -2 -3 -1 -1 -0 -2 -7 1 3 -2 -1 -1 -1
14 -9 16 57 19 6 2 8 14 2 0 0 13 -11 4 -7 2 -5 -0 -0 -1 -2 -3 -1 -2 -3 -2 -2 -1 3 -2 -2 -1 -1 -2 -1 0 1 -3 -4 -1 -4 -2 0
-5 -5 13 12 19 6 -7 3 0 -25 93 -0 2 4 3 4 -1 -6 -1 -2 -1 -2 -3 -1 1 -0 -0 -2 -3 -1 -0 -1 -1 -2 -2 -2 -2 0 -0 -2 -0 -1 -2 -2
21 134 4 36 1 -2 2 -8 -39 2 -2 2 -6 -2 5 -2 -5 -0 1 -2 -2 -2 -2 -3 -2 1 -0 -2 -2 0 -0 -3 -1 -0 -1 -1 -3 -0 -1 -2 -1 -1 -3 0
27 57 110 119 -9 -12 9 -17 22 -10 0 -9 3 -1 -3 -4 -2 -1 -1 -1 -2 -2 -2 -2 -2 -2 -1 -1 -0 -2 -1 -1 -1 -2 -1 -1 -1 -1 0 2 2 -2 0 -3
Height
5901 5905 5909 5906 5909 5912 5906 5908 5906 5893 5902 5912 5908 5895 5899 5900 5907 5909 5911 5911 5910 5908 5907 5907 5906 5904 5904 5904 5903 5902 5900 5898 5898 5898 5897 5896 5895 5894 5893 5891 5891 5892 5893 5893
5901 5906 5905 5906 5907 5911 5908 5905 5897 5910 5917 5914 5910 5900 5854 5892 5907 5912 5913 5913 5912 5909 5909 5908 5905 5904 5903 5905 5903 5901 5901 5900 5898 5897 5898 5896 5894 5893 5891 5892 5889 5871 5892 5894
5900 5908 5912 5908 5906 5906 5908 5901 5906 5915 5917 5917 5915 5910 5905 5908 5908 5913 5913 5912 5911 5911 5909 5908 5906 5904 5904 5902 5902 5901 5900 5900 5898 5897 5896 5895 5894 5892 5890 5890 5890 5891 5892 5891
5899 5902 5903 5909 5910 5910 5912 5907 5910 5914 5917 5916 5915 5913 5909 5908 5898 5906 5913 5911 5911 5911 5909 5908 5906 5904 5904 5904 5903 5902 5900 5900 5898 5897 5896 5895 5895 5893 5892 5892 5890 5890 5891 5890
5899 5900 5901 5906 5910 5910 5909 5907 5911 5913 5915 5915 5912 5913 5906 5906 5894 5890 5902 5910 5910 5911 5909 5907 5907 5907 5905 5904 5902 5903 5901 5899 5897 5896 5894 5894 5893 5893 5892 5891 5890 5889 5889 5888
5894 5903 5904 5904 5907 5907 5904 5907 5911 5913 5915 5912 5911 5904 5904 5906 5901 5898 5901 5904 5910 5909 5908 5907 5906 5905 5905 5903 5902 5903 5900 5898 5896 5895 5893 5893 5892 5892 5891 5890 5890 5889 5886 5886
5891 5894 5898 5902 5904 5901 5906 5911 5913 5916 5915 5905 5906 5908 5907 5905 5903 5902 5904 5908 5907 5906 5905 5903 5902 5901 5902 5901 5900 5900 5900 5897 5895 5893 5892 5890 5889 5889 5889 5888 5887 5887 5885 5884
5889 5894 5895 5898 5901 5906 5905 5909 5911 5903 5901 5903 5909 5904 5902 5908 5905 5905 5906 5909 5908 5904 5903 5898 5903 5900 5898 5899 5897 5896 5900 5896 5893 5891 5889 5889 5888 5886 5885 5884 5883 5881 5880 5880
5890 5893 5897 5895 5898 5902 5903 5906 5904 5899 5901 5903 5905 5902 5896 5902 5902 5903 5906 5906 5907 5906 5907 5858 5898 5901 5894 5896 5896 5894 5894 5893 5890 5887 5886 5886 5885 5884 5882 5880 5878 5876 5873 5869
5885 5891 5895 5896 5896 5900 5901 5904 5901 5900 5901 5900 5902 5904 5902 5904 5895 5880 5903 5902 5901 5901 5902 5900 5898 5895 5893 5893 5893 5891 5890 5888 5886 5883 5883 5883 5881 5880 5879 5877 5875 5871 5866 5860
5879 5887 5893 5896 5892 5895 5900 5900 5900 5902 5895 5902 5905 5907 5898 5892 5892 5896 5897 5897 5896 5895 5895 5894 5893 5893 5892 5888 5887 5888 5884 5882 5881 5881 5879 5879 5878 5878 5876 5874 5870 5867 5860 5851
5876 5882 5888 5890 5893 5892 5894 5898 5899 5902 5905 5903 5905 5895 5891 5882 5875 5881 5891 5893 5893 5893 5893 5892 5891 5890 5888 5884 5881 5880 5879 5877 5876 5875 5875 5874 5874 5873 5871 5868 5865 5862 5858 5853
5871 5875 5882 5886 5889 5891 5889 5892 5896 5897 5899 5898 5898 5894 5889 5885 5855 5882 5888 5890 5890 5890 5889 5888 5887 5885 5883 5880 5877 5875 5874 5874 5873 5871 5871 5870 5868 5867 5864 5863 5860 5856 5854 5851
5866 5873 5878 5886 5884 5890 5886 5889 5891 5893 5895 5898 5892 5886 5888 5887 5886 5887 5890 5891 5888 5886 5885 5884 5882 5880 5878 5876 5874 5873 5871 5870 5869 5868 5867 5864 5863 5861 5859 5858 5856 5852 5849 5845
5861 5865 5872 5879 5878 5876 5883 5888 5888 5888 5892 5893 5883 5886 5881 5879 5883 5882 5885 5886 5885 5883 5882 5881 5879 5877 5875 5873 5871 5869 5867 5865 5864 5862 5860 5858 5856 5854 5852 5850 5848 5846 5842 5838
5857 5860 5867 5871 5876 5877 5883 5883 5885 5886 5887 5891 5886 5878 5876 5880 5881 5877 5883 5881 5879 5878 5878 5877 5874 5872 5870 5869 5867 5864 5862 5860 5859 5857 5855 5852 5850 5847 5845 5842 5839 5836 5833 5830
5854 5857 5862 5866 5872 5876 5878 5881 5883 5887 5885 5886 5888 5877 5870 5865 5867 5872 5874 5874 5875 5874 5873 5872 5870 5868 5866 5865 5862 5860 5858 5855 5853 5850 5847 5845 5841 5838 5836 5833 5830 5827 5825 5823
5850 5853 5857 5861 5866 5865 5872 5879 5878 5880 5880 5880 5878 5867 5872 5872 5872 5871 5871 5871 5871 5870 5869 5867 5865 5862 5860 5858 5856 5853 5851 5849 5846 5843 5840 5837 5834 5831 5828 5824 5821 5818 5816 5813
5852 5850 5851 5854 5859 5864 5868 5873 5872 5872 5874 5873 5870 5863 5867 5871 5870 5868 5866 5866 5866 5865 5862 5861 5859 5857 5854 5852 5849 5847 5845 5842 5838 5835 5831 5828 5825 5822 5818 5815 5812 5809 5806 5804
5844 5849 5850 5852 5854 5859 5865 5863 5863 5866 5868 5867 5866 5863 5864 5866 5864 5860 5862 5860 5860 5859 5857 5855 5853 5851 5848 5845 5842 5839 5837 5834 5831 5827 5823 5819 5815 5812 5810 5806 5802 5799 5795 5792
5836 5839 5846 5849 5851 5855 5848 5850 5855 5861 5856 5853 5859 5858 5862 5861 5861 5858 5855 5856 5855 5854 5852 5850 5848 5845 5841 5838 5835 5832 5829 5825 5822 5818 5814 5810 5805 5803 5800 5795 5792 5788 5784 5780
5828 5833 5837 5845 5846 5848 5840 5846 5847 5848 5853 5851 5854 5856 5857 5855 5854 5852 5851 5850 5849 5848 5846 5844 5841 5838 5835 5832 5829 5825 5821 5816 5813 5809 5805 5801 5797 5792 5789 5785 5782 5777 5774 5770
5817 5816 5826 5832 5828 5831 5835 5841 5844 5842 5840 5847 5850 5849 5851 5848 5846 5845 5844 5845 5844 5842 5840 5837 5834 5831 5827 5824 5820 5817 5813 5808 5804 5800 5796 5792 5788 5784 5779 5774 5771 5767 5763 5760
5800 5808 5802 5820 5814 5820 5823 5831 5835 5833 5822 5836 5842 5843 5844 5843 5843 5842 5841 5840 5838 5835 5833 5830 5827 5824 5819 5816 5812 5808 5804 5800 5795 5790 5786 5782 5777 5773 5769 5765 5760 5756 5752 5747
5782 5782 5805 5815 5807 5812 5815 5823 5825 5830 5832 5833 5837 5838 5838 5838 5838 5837 5836 5834 5831 5828 5825 5822 5819 5815 5811 5808 5804 5800 5795 5790 5786 5781 5777 5773 5768 5763 5759 5755 5750 5745 5740 5735
5790 5788 5785 5795 5805 5803 5805 5814 5822 5827 5830 5831 5832 5832 5831 5832 5831 5830 5829 5826 5823 5820 5817 5814 5811 5807 5803 5799 5795 5791 5787 5783 5778 5773 5769 5764 5759 5754 5749 5744 5740 5734 5729 5724